Powrót do katalogu

NOAA 16 DEB

AktywnySSO
NORAD 42376·DEBRIS·🇺🇸 United States

Wystrzelony Sep 21, 2000 z Vandenberg Space Force Base

Loading…

Następne Przeloty (najbliższe 24 godziny)

TLE

Starzejące sięSource: Space-Track

Epoka: Sep 10, 2026, 01:41 UTC

1 42376U 00055RU  26253.07060169  .00005144  00000-0  22853-2 0  9995
2 42376  98.7525 200.2158 0077026 258.0351 101.2184 14.21819936540532

Śledź NOAA 16 DEB w czasie rzeczywistym z AllMySat

Download on the App Store